Regional Weather Roundup
Issued by NWS

Home | Current Version | Previous Version | Graphics & Text | Print | Product List | Glossary On
Versions: 1 2 3 4 5 6 7 8 9 10 11 12 13 14 15 16 17 18 19 20 21 22 23 24 25 26 27 28 29 30 31 32 33 34 35 36 37 38 39 40 41 42 43 44 45 46 47 48 49 50
000
ASUS43 KIND 251109
RWRIN

WEATHER ROUNDUP FOR INDIANA
NATIONAL WEATHER SERVICE INDIANAPOLIS IN
700 AM EDT TUE JUL 25 2017

NOTE: "FAIR" INDICATES FEW OR NO CLOUDS BELOW 12,000 FEET WITH NO
SIGNIFICANT WEATHER AND/OR OBSTRUCTIONS TO VISIBILITY.

* - STATION DOES NOT REPORT WEATHER SUCH AS PRECIPITATION OR FOG.

+ - STATION NOT QUALITY CONTROLLED BY THE NATIONAL WEATHER SERVICE.
    USE DATA WITH CAUTION...ESPECIALLY DEWPOINT AND RELATIVE
    HUMIDITY OBSERVATIONS.

INZ001>003-010>013-019-020-251200-
NORTHWEST INDIANA

CITY           SKY/WX    TMP DP  RH WIND       PRES   REMARKS
GARY /AIRPORT/ PTCLDY    61  59  94 CALM      30.18R
KNOX *+          N/A     55  55 100 CALM      30.19R VSB 1
LA PORTE +     CLOUDY    56  55  99 CALM      30.20R FOG
MICHIGAN CITY+   N/A     54  54 100 CALM      30.20R FOG
MONTICELLO +   CLEAR     58  57  96 CALM      30.17R
RENSSELAER +   CLEAR     55  54  94 NE3       30.18R FOG
VALPARAISO     FOG       57  57 100 NE5       30.19R VSB 1/4

$$

LMZ046-743>745-251200-
SOUTHERN LAKE MICHIGAN

STATION/POSITION TIME  TEMP    WIND        PRES    WAVE
                       AIR SEA DIR/SP/G            HT
                 (UTC) (F)     (DEG/KT/KT) (MB)    (FT)
BURNS HARBOR     1040   66     110/  3/  5 1022.7R
MICHIGAN CITY    1040   62     130/  5/  6   N/A
5NW MICH CITY    1100   66 74  140/  8/ 10   N/A     3

$$

INZ004-005-014>016-021>024-251200-
NORTH CENTRAL INDIANA

CITY           SKY/WX    TMP DP  RH WIND       PRES   REMARKS
ELKHART        CLEAR     57  55  94 CALM      30.21  FOG
GOSHEN         CLEAR     54  52  93 CALM      30.20R FOG
LOGANSPORT +   CLEAR     59  59 100 CALM      30.19R
PERU/GRISSOM   PTCLDY    57  57 100 NE5       30.18R
ROCHESTER +    CLEAR     57  57 100 CALM      30.20R FOG
SOUTH BEND     CLEAR     57  57 100 E3        30.21R
WARSAW +       CLEAR     55  54  94 CALM      30.21R

$$

INZ006>009-017-018-025>027-251200-
NORTHEAST INDIANA

CITY           SKY/WX    TMP DP  RH WIND       PRES   REMARKS
AUBURN +       CLEAR     55  52  88 CALM      30.21R
FORT WAYNE     PTCLDY    56  54  93 CALM      30.20R
HUNTINGTON +   CLEAR     55  54  95 CALM      30.19R FOG
KENDALLVILLE + CLEAR     53  53 100 CALM      30.21R

$$

INZ028-029-035-036-043>045-051>053-251200-
WEST CENTRAL INDIANA

CITY           SKY/WX    TMP DP  RH WIND       PRES   REMARKS
GREENCASTLE +  CLEAR     59  55  88 CALM      30.17R
LAFAYETTE      CLEAR     58  57  97 NE6       30.16R
TERRE HAUTE    CLEAR     62  58  86 E5        30.15R

$$

INZ030>032-037>040-046>048-054>057-064-065-251200-
CENTRAL INDIANA

CITY           SKY/WX    TMP DP  RH WIND       PRES   REMARKS
CP ATTERBURY + CLEAR     59  57  94 CALM      30.17R
COLUMBUS       PTCLDY    59  57  94 NE3       30.16
FRANKFORT +    CLEAR     59  58  96 E3        30.19R
GREENWOOD *+   CLEAR    N/A N/A N/A E3        30.17R
INDIANAPOLIS   PTCLDY    63  57  81 E9        30.16R
-EAGLE CREEK   CLEAR     61  57  87 E5        30.16R
KOKOMO +       CLEAR     57  56  96 NE6       30.19R
MARION +       CLEAR     55  55 100 NE3       30.19S FOG
MT COMFORT *+  CLEAR     55  55 100 CALM      30.17R
SHELBYVILLE    CLEAR     58  55  90 E6        30.16R
ZIONSVILLE +   CLEAR     56  55  97 CALM      30.18R

$$

INZ033-034-041-042-049-050-058-059-251200-
EAST CENTRAL INDIANA

CITY           SKY/WX    TMP DP  RH WIND       PRES   REMARKS
MUNCIE         CLEAR     56  53  90 CALM      30.19R
RICHMOND +     CLEAR     54  54 100 NE5       30.20R

$$

INZ060-061-067>069-081>083-085>088-251200-
SOUTHWEST INDIANA

CITY           SKY/WX    TMP DP  RH WIND       PRES   REMARKS
EVANSVILLE     MOCLDY    70  66  87 NE6       30.11R

$$

INZ062-063-066-070>080-084-089>092-251200-
SOUTH CENTRAL AND SOUTHEAST INDIANA

CITY           SKY/WX    TMP DP  RH WIND       PRES   REMARKS
BEDFORD +      PTCLDY    63  59  88 E3        30.13R
BLOOMINGTON    CLEAR     64  58  80 E6        30.15R
MADISON *+     CLEAR     63  59  88 E6        30.17R
NORTH VERNON + CLEAR     61  59  94 NE5       30.16R
SEYMOUR +      CLEAR    N/A N/A N/A CALM      30.15R

$$





USA.gov is the U.S. government's official web portal to all federal, state and local government web resources and services.